Terug naar catalogus

OPS 4682 DEB

ActiefPO
NORAD 38391·DEBRIS·🇺🇸 United States

Gelanceerd Apr 3, 1965 vanaf Vandenberg Space Force Base

Loading…

Volgende Passages (komende 24 uur)

TLE

VerouderdSource: Space-Track

Epoch: Aug 25, 2026, 07:41 UTC

1 38391U 65027CU  26237.32041073 -.00000393  00000-0 -13562-2 0  9990
2 38391  90.2289   9.3331 0042909 225.5684 134.1924 12.98464640608744

Volg OPS 4682 DEB in realtime met AllMySat

Download on the App Store